Вернуться в каталог

GAOFEN SHIPIN WEIXING

АктивенНаукаSSO
NORAD 59680·PAYLOAD·🇨🇳 China
Это название спутника еще не подтверждено официальными источниками.

Запущен May 7, 2024 с Taiyuan Satellite Launch Center

Loading…

Ближайшие Пролёты (ближайшие 24 часа)

TLE

СвежийSource: Space-Track

Эпоха: Sep 14, 2026, 22:07 UTC

1 59680U 24085D   26257.92184888  .00012137  00000-0  32942-3 0  9994
2 59680  97.3168 333.3001 0014151  93.2744 267.0120 15.37645222131446

Отслеживайте GAOFEN SHIPIN WEIXING в реальном времени с AllMySat

Download on the App Store